x

Boston 16 Nm East Of Boston, Ma (44013) Wave Buoy

5:50 - Thu 11th Feb 2016 All times are EST. -5 hours from GMT.

  • Sig Wave height 4.9ft
  • Swell Direction
  • Peak Period 5s
  • Average Period 4s
  • Wind
    34mph, 40mph gusts
  • Sea Temp 41°f
  • Aire Temp 23°f
  • Sea Pressure 1008.7mb
  • Boston 16 Nm East Of Boston, Ma
  • Boston 16 Nm East Of Boston, Ma

More Historic Weather Station data

Upgrade to MSW Pro to gain access to the past 30 days of data for over 8000 Wavebouys and Weather Stations around the globe.

Join Pro

Comparision Forecast

View Surf forecast
   
jue 02/11 5:50 5ft 5s 4s 34 40 mph 1008.7mb 41f 23f
4:50 3.5ft 5s 4s 31 38 mph 1007mb 41f 26f
3:50 4ft 4s 4s 27 34 mph 1006.3mb 41f 26f
2:50 3.5ft 4s 4s 27 31 mph 1005.3mb 41f 26f
1:50 3ft 4s 4s 27 34 mph 1004.7mb 41f 27f
12:50 2.5ft 12s 4s 22 27 mph 1004.9mb 41f 27f
11:50 3ft 4s 4s 22 27 mph 1005.3mb 41f 25f
10:50 3ft 11s 4s 20 25 mph 1005.9mb 41f 26f
6:50 2.5ft 10s 4s 16 20 mph 1004.8mb 41f 29f
5:50 2.5ft 3s 4s 20 22 mph 1004.4mb 41f 30f
4:50 3ft 11s 4s 18 22 mph 1004mb 41f 31f
3:50 3ft 11s 4s 20 25 mph 1003.3mb 41f 31f
2:50 3.5ft 11s 4s 20 25 mph 1003.2mb 41f 33f
1:50 3.5ft 11s 4s 22 27 mph 1003mb 41f 33f
12:50 3ft 11s 4s 20 25 mph 1003.1mb 41f 33f
mié 02/10 11:50 3ft 11s 4s 22 27 mph 1003.2mb 41f 34f
10:50 3ft 11s 4s 20 25 mph 1002.9mb 41f 35f
9:50 3.5ft 11s 4s 25 29 mph 1002.7mb 41f 36f
8:50 3ft 8s 5s 20 22 mph 1002.6mb 41f 36f
7:50 3ft 11s 7s 16 18 mph 1002.7mb 41f 36f
6:50 3.5ft 12s 8s 13 16 mph 1002.7mb 41f 35f
5:50 3.5ft 11s 9s 11 13 mph 1002.5mb 41f 35f
4:50 3.5ft 11s 9s 7 9 mph 1001.7mb 41f 34f
3:50 3.5ft 11s 9s 7 9 mph 1001mb 41f 34f
2:50 3.5ft 11s 9s 4 7 mph 1000.6mb 41f 34f
1:50 3.5ft 12s 9s 4
mph
1000.5mb 41f 33f
12:50 3.5ft 11s 8s 4 7 mph 1000.6mb 41f 33f
11:50 4ft 11s 8s 4 7 mph 1001.4mb 41f 32f
10:50 3.5ft 8s 7s 7 11 mph 1002.4mb 41f 32f
9:50 4ft 11s 8s 9 11 mph 1002.8mb 41f 31f
8:50 4ft 11s 8s 9 11 mph 1003.1mb 41f 31f
7:50 4ft 11s 8s 9 11 mph 1003.3mb 41f 31f
6:50 5ft 12s 9s 7 9 mph 1003.2mb 41f 31f
5:50 4.5ft 11s 8s 9 11 mph 1002.8mb 40f 31f
4:50 4.5ft 11s 8s 9 11 mph 1002.7mb 40f 30f
3:50 5.5ft 12s 9s 4 7 mph 1002.2mb 40f 30f
2:50 5ft 13s 8s 2
mph
1002.4mb 41f 30f
1:50 5ft 12s 8s 4 7 mph 1002.5mb 41f 30f
12:50 5.5ft 13s 8s 7 11 mph 1002.1mb 41f 30f
mar 02/09 11:50 6ft 13s 8s 7 11 mph 1002.4mb 41f 30f
10:50 6.5ft 13s 8s 7 11 mph 1002.6mb 41f 30f
9:50 6ft 13s 8s 2 7 mph 1003mb 41f 29f
8:50 7ft 14s 8s 7 11 mph 1003.1mb 41f 30f
7:50 7ft 14s 8s 4 11 mph 1002.9mb 41f 30f
6:50 8ft 11s 8s 7 11 mph 1003mb 41f 30f
5:50 9ft 11s 9s 9 11 mph 1002.9mb 41f 29f
4:50 8ft 11s 8s 9 13 mph 1002.2mb 41f 29f
3:50 9.5ft 11s 9s 11 13 mph 1002.2mb 41f 29f
2:50 9.5ft 12s 8s 13 18 mph 1001.5mb 41f 29f
1:50 11ft 13s 9s 18 20 mph 1001.4mb 41f 28f
12:50 11ft 11s 8s 18 22 mph 1002.1mb 41f 28f
11:50 12.5ft 14s 9s 20 27 mph 1003.1mb 41f 28f
10:50 12ft 12s 8s 20 25 mph 1004mb 41f 28f
9:50 12ft 14s 8s 20 22 mph 1004.8mb 41f 28f
8:50 13.5ft 14s 9s 16 20 mph 1005.3mb 41f 28f
7:50 13ft 14s 9s 16 20 mph 1006mb 41f 29f
6:50 14.5ft 11s 9s 25 29 mph 1003.4mb 41f 29f
5:50 14ft 14s 9s 20 25 mph 1005.9mb 41f 28f
4:50 15ft 11s 9s 20 25 mph 1005.9mb 41f 28f
3:50 15.5ft 13s 9s 16 18 mph 1006.4mb 41f 28f
2:50 15ft 12s 9s 20 27 mph 1006.9mb 41f 28f
1:50 15.5ft 12s 9s 20 27 mph 1006.8mb 41f 28f
12:50 14.5ft 11s 8s 22 25 mph 1006.6mb 41f 28f
lun 02/08 11:50 15.5ft 11s 9s 25 29 mph 1007.2mb 41f 27f
10:50 17.5ft 12s 9s 27 31 mph 1007mb 41f 26f
9:50 16ft 11s 8s 27 34 mph 1007.1mb 41f 26f
8:50 15.5ft 11s 8s 29 36 mph 1006.9mb 41f 26f
7:50 17.5ft 11s 8s 29 38 mph 1006.8mb 41f 26f
6:50 15.5ft 11s 8s 29 38 mph 1006.6mb 41f 28f
5:50 14.5ft 11s 8s 31 40 mph 1005.5mb 41f 29f
4:50 16.5ft 10s 8s 31 38 mph 1004.8mb 41f 28f
3:50 15.5ft 10s 8s 34 43 mph 1004.4mb 41f 28f
2:50 15ft 11s 8s 36 45 mph 1004mb 41f 28f
1:50 14.5ft 10s 8s 36 45 mph 1004.2mb 41f 28f
12:50 15ft 10s 8s 36 45 mph 1005.4mb 41f 27f
11:50 16.5ft 10s 8s 36 45 mph 1006.7mb 41f 28f
10:50 16ft 10s 8s 36 45 mph 1008.3mb 42f 28f
9:50 17ft 10s 8s 36 43 mph 1008.5mb 42f 29f
8:50 16ft 9s 7s 36 43 mph 1008.4mb 42f 31f
7:50 15.5ft 10s 8s 34 45 mph 1009.1mb 42f 34f
6:50 15.5ft 9s 7s 36 45 mph 1009.6mb 42f 34f
5:50 14.5ft 9s 7s 38 45 mph 1010.1mb 42f 34f
4:50 14ft 8s 7s 36 45 mph 1010mb 42f 35f
3:50 12ft 8s 6s 36 45 mph 1011.3mb 42f 36f
2:50 9ft 7s 6s 34 40 mph 1012.6mb 42f 37f
1:50 7ft 6s 5s 31 38 mph 1013.4mb 42f 39f
12:50 6ft 6s 5s 29 34 mph 1014.6mb 42f 40f
dom 02/07 11:50 5ft 5s 4s 27 31 mph 1016.3mb 42f 40f